| time (UTC) | temp F | wind direction | speed knots | gust knots | rain 1hr in | rain 24hr in | rain mn in | humidity % | barometer mb |
| 20260506165223 | 55 | 334 | 1.7 | 1.7 | 0.00 | 0.64 | 0.64 | 75 | 1011.9 |
| 20260506164720 | 54 | 261 | 2.6 | 2.6 | 0.00 | 0.64 | 0.64 | 80 | 1011.8 |
| 20260506164217 | 54 | 291 | 2.6 | 2.6 | 0.00 | 0.64 | 0.64 | 77 | 1011.9 |
| 20260506163714 | 53 | 292 | 4.3 | 6.1 | 0.00 | 0.64 | 0.64 | 79 | 1011.9 |
| 20260506163208 | 54 | 281 | 2.6 | 2.6 | 0.00 | 0.64 | 0.64 | 80 | 1011.8 |
| 20260506162705 | 54 | 342 | 2.6 | 4.3 | 0.00 | 0.64 | 0.64 | 80 | 1011.8 |
| 20260506162202 | 53 | 276 | 2.6 | 2.6 | 0.00 | 0.64 | 0.64 | 79 | 1011.7 |
| 20260506161659 | 53 | 330 | 5.2 | 6.1 | 0.00 | 0.64 | 0.64 | 81 | 1011.6 |
| 20260506161156 | 52 | 296 | 3.5 | 4.3 | 0.00 | 0.64 | 0.64 | 82 | 1011.6 |
| 20260506160654 | 52 | 337 | 0.9 | 0.9 | 0.00 | 0.64 | 0.64 | 81 | 1011.5 |
| 20260506160151 | 52 | 304 | 2.6 | 4.3 | 0.00 | 0.64 | 0.64 | 82 | 1011.5 |
| 20260506155649 | 52 | 12 | 1.7 | 1.7 | 0.00 | 0.64 | 0.64 | 83 | 1011.4 |
| 20260506155146 | 49 | 292 | 2.6 | 4.3 | 0.00 | 0.64 | 0.64 | 91 | 1011.2 |
| 20260506153248 | 49 | 289 | 3.5 | 4.3 | 0.00 | 0.64 | 0.64 | 95 | 1011.2 |
| 20260506152745 | 49 | 12 | 0.9 | 0.9 | 0.00 | 0.64 | 0.64 | 98 | 1010.8 |
| 20260506152242 | 49 | 253 | 1.7 | 1.7 | 0.00 | 0.64 | 0.64 | 99 | 1010.9 |
| 20260506151741 | 48 | 8 | 1.7 | 2.6 | 0.00 | 0.64 | 0.64 | 99 | 1011.0 |
| 20260506151237 | 48 | 350 | 1.7 | 1.7 | 0.00 | 0.64 | 0.64 | 99 | 1010.8 |
| 20260506150733 | 48 | 36 | 1.7 | 1.7 | 0.00 | 0.64 | 0.64 | 99 | 1010.8 |
| 20260506150231 | 47 | 317 | 1.7 | 1.7 | 0.00 | 0.64 | 0.64 | 99 | 1010.9 |
| 20260506145728 | 47 | 7 | 0.9 | 1.7 | 0.00 | 0.64 | 0.64 | 99 | 1010.9 |
| 20260506145224 | 47 | 273 | 2.6 | 2.6 | 0.00 | 0.64 | 0.64 | 99 | 1011.0 |
| 20260506144722 | 46 | 346 | 1.7 | 2.6 | 0.00 | 0.64 | 0.64 | 99 | 1010.8 |
| 20260506144219 | 47 | 326 | 1.7 | 1.7 | 0.00 | 0.64 | 0.64 | 99 | 1010.7 |
| 20260506143716 | 47 | 326 | 2.6 | 2.6 | 0.00 | 0.64 | 0.64 | 99 | 1010.7 |
| 20260506143214 | 47 | 308 | 3.5 | 5.2 | 0.00 | 0.64 | 0.64 | 99 | 1010.7 |
| 20260506142712 | 47 | 49 | 3.5 | 5.2 | 0.00 | 0.64 | 0.64 | 99 | 1010.4 |
| 20260506142210 | 47 | 298 | 1.7 | 1.7 | 0.00 | 0.64 | 0.64 | 99 | 1010.3 |
| 20260506141708 | 48 | 66 | 0.0 | 0.9 | 0.00 | 0.64 | 0.64 | 99 | 1010.3 |
| 20260506141206 | 47 | 310 | 0.9 | 0.9 | 0.00 | 0.64 | 0.64 | 99 | 1010.1 |
| 20260506140703 | 47 | 6 | 1.7 | 1.7 | 0.00 | 0.64 | 0.64 | 99 | 1010.0 |
| 20260506140200 | 47 | 336 | 0.9 | 1.7 | 0.00 | 0.64 | 0.64 | 99 | 1010.0 |
| 20260506135657 | 47 | 3 | 0.9 | 0.9 | 0.00 | 0.64 | 0.64 | 99 | 1010.0 |
| 20260506135153 | 48 | 25 | 0.9 | 0.9 | 0.00 | 0.64 | 0.64 | 99 | 1009.9 |
| 20260506134650 | 48 | 53 | 0.9 | 0.9 | 0.00 | 0.64 | 0.64 | 99 | 1009.8 |
| 20260506134145 | 47 | 76 | 0.0 | 0.9 | 0.00 | 0.64 | 0.64 | 99 | 1009.7 |
| 20260506133643 | 47 | 89 | 0.0 | 0.9 | 0.00 | 0.64 | 0.64 | 99 | 1009.8 |
| 20260506133140 | 47 | 33 | 0.9 | 0.9 | 0.00 | 0.64 | 0.64 | 99 | 1009.6 |
| 20260506132637 | 47 | 85 | 1.7 | 1.7 | 0.00 | 0.64 | 0.64 | 99 | 1009.8 |
| 20260506132134 | 47 | 253 | 0.9 | 1.7 | 0.00 | 0.64 | 0.64 | 99 | 1009.8 |
| 20260506131631 | 47 | 277 | 1.7 | 1.7 | 0.00 | 0.64 | 0.64 | 99 | 1009.8 |
| 20260506131127 | 47 | 36 | 0.0 | 0.0 | 0.00 | 0.64 | 0.64 | 99 | 1009.6 |
| 20260506130624 | 47 | 41 | 0.9 | 1.7 | 0.00 | 0.64 | 0.64 | 99 | 1009.5 |
| 20260506130122 | 47 | 66 | 0.0 | 0.0 | 0.00 | 0.64 | 0.64 | 99 | 1009.3 |
| 20260506125620 | 47 | 331 | 0.0 | 0.0 | 0.00 | 0.64 | 0.64 | 99 | 1009.5 |
| 20260506125117 | 46 | 30 | 0.9 | 2.6 | 0.00 | 0.64 | 0.64 | 99 | 1009.6 |
| 20260506124615 | 46 | 312 | 2.6 | 2.6 | 0.00 | 0.64 | 0.64 | 99 | 1009.3 |
| 20260506124113 | 46 | 32 | 0.9 | 0.9 | 0.00 | 0.64 | 0.64 | 99 | 1009.6 |
| 20260506123610 | 46 | 51 | 0.0 | 0.9 | 0.00 | 0.64 | 0.64 | 99 | 1009.5 |
| 20260506123109 | 46 | 67 | 0.0 | 0.0 | 0.00 | 0.64 | 0.64 | 99 | 1009.1 |
| 20260506122604 | 46 | 217 | 1.7 | 1.7 | 0.00 | 0.64 | 0.64 | 99 | 1009.4 |
| 20260506122103 | 46 | 286 | 2.6 | 2.6 | 0.00 | 0.64 | 0.64 | 99 | 1009.7 |
| 20260506121600 | 46 | 264 | 0.0 | 0.0 | 0.00 | 0.64 | 0.64 | 99 | 1009.2 |
| 20260506121056 | 46 | 266 | 0.0 | 0.0 | 0.00 | 0.64 | 0.64 | 99 | 1009.0 |
| 20260506120555 | 46 | 17 | 0.9 | 0.9 | 0.00 | 0.64 | 0.64 | 99 | 1009.0 |
| 20260506120051 | 46 | 71 | 0.0 | 0.0 | 0.00 | 0.64 | 0.64 | 99 | 1008.7 |
| 20260506115549 | 45 | 95 | 0.0 | 0.0 | 0.00 | 0.64 | 0.64 | 99 | 1008.6 |
| 20260506115048 | 45 | 171 | 0.0 | 1.7 | 0.00 | 0.64 | 0.64 | 99 | 1008.4 |
| 20260506114544 | 45 | 76 | 0.9 | 0.9 | 0.07 | 0.64 | 0.64 | 99 | 1008.6 |
| 20260506114043 | 45 | 91 | 0.0 | 0.9 | 0.07 | 0.64 | 0.64 | 99 | 1008.9 |
| 20260506113541 | 45 | 40 | 0.0 | 0.0 | 0.05 | 0.63 | 0.63 | 99 | 1008.9 |
| 20260506113038 | 45 | 42 | 0.9 | 1.7 | 0.05 | 0.63 | 0.63 | 99 | 1008.4 |
| 20260506112534 | 45 | 48 | 1.7 | 2.6 | 0.07 | 0.62 | 0.62 | 99 | 1008.3 |
| 20260506112031 | 45 | 73 | 0.0 | 0.0 | 0.07 | 0.62 | 0.62 | 99 | 1008.8 |
| 20260506111530 | 45 | 55 | 0.0 | 0.0 | 0.00 | 0.61 | 0.61 | 99 | 1008.8 |
| 20260506111026 | 45 | 2 | 0.9 | 0.9 | 0.00 | 0.61 | 0.61 | 99 | 1009.0 |
| 20260506110524 | 45 | 33 | 0.0 | 0.0 | 0.00 | 0.61 | 0.61 | 99 | 1008.9 |
| 20260506110021 | 45 | 92 | 0.0 | 0.0 | 0.00 | 0.61 | 0.61 | 99 | 1008.4 |
| 20260506105517 | 45 | 40 | 0.9 | 1.7 | 0.00 | 0.61 | 0.61 | 99 | 1008.2 |
| 20260506105015 | 45 | 67 | 0.0 | 0.0 | 0.00 | 0.61 | 0.61 | 99 | 1007.9 |
| 20260506104513 | 45 | 99 | 0.0 | 0.0 | 0.00 | 0.61 | 0.61 | 99 | 1007.7 |
| 20260506104010 | 44 | 27 | 2.6 | 4.3 | 0.00 | 0.61 | 0.61 | 99 | 1007.6 |
| 20260506103507 | 44 | 40 | 0.0 | 0.0 | 0.00 | 0.61 | 0.61 | 99 | 1007.1 |
| 20260506103004 | 45 | 40 | 0.9 | 0.9 | 0.00 | 0.61 | 0.61 | 99 | 1007.0 |
| 20260506102502 | 44 | 41 | 2.6 | 2.6 | 0.00 | 0.61 | 0.61 | 99 | 1006.7 |
| 20260506101959 | 44 | 53 | 0.9 | 0.9 | 0.00 | 0.61 | 0.61 | 99 | 1007.1 |
| 20260506101455 | 44 | 88 | 2.6 | 2.6 | 0.00 | 0.61 | 0.61 | 99 | 1007.2 |
| 20260506100953 | 44 | 51 | 0.0 | 0.0 | 0.00 | 0.61 | 0.61 | 99 | 1007.6 |
| 20260506100451 | 44 | 33 | 0.9 | 0.9 | 0.05 | 0.61 | 0.61 | 99 | 1007.5 |
| 20260506095949 | 44 | 76 | 1.7 | 1.7 | 0.05 | 0.61 | 0.61 | 99 | 1007.5 |
| 20260506095447 | 44 | 42 | 1.7 | 1.7 | 0.07 | 0.60 | 0.60 | 99 | 1007.5 |
| 20260506094943 | 44 | 116 | 0.9 | 0.9 | 0.07 | 0.60 | 0.60 | 99 | 1007.1 |
| 20260506094441 | 44 | 47 | 2.6 | 2.6 | 0.00 | 0.59 | 0.59 | 99 | 1007.6 |
| 20260506093939 | 44 | 29 | 0.9 | 0.9 | 0.07 | 0.59 | 0.59 | 99 | 1007.9 |
| 20260506093437 | 44 | 263 | 0.0 | 0.0 | 0.12 | 0.59 | 0.59 | 99 | 1007.9 |
| 20260506092934 | 45 | 193 | 0.0 | 0.0 | 0.05 | 0.58 | 0.58 | 99 | 1008.0 |
| 20260506092432 | 45 | 56 | 0.0 | 0.9 | 0.07 | 0.57 | 0.57 | 99 | 1007.9 |
| 20260506091928 | 45 | 71 | 0.0 | 0.0 | 0.12 | 0.57 | 0.57 | 99 | 1007.7 |
| 20260506091427 | 45 | 65 | 1.7 | 1.7 | 0.12 | 0.56 | 0.56 | 99 | 1007.7 |
| 20260506090923 | 45 | 31 | 0.0 | 0.9 | 0.12 | 0.55 | 0.55 | 99 | 1007.7 |
| 20260506090421 | 46 | 47 | 0.0 | 0.9 | 0.05 | 0.54 | 0.54 | 99 | 1007.6 |
| 20260506085918 | 46 | 291 | 1.7 | 2.6 | 0.00 | 0.53 | 0.53 | 99 | 1007.7 |
| 20260506085414 | 46 | 355 | 2.6 | 5.2 | 0.00 | 0.53 | 0.53 | 99 | 1007.7 |
| 20260506084911 | 46 | 299 | 1.7 | 1.7 | 0.00 | 0.53 | 0.53 | 99 | 1007.7 |
| 20260506084408 | 47 | 4 | 0.9 | 1.7 | 0.00 | 0.53 | 0.53 | 99 | 1007.3 |
| 20260506083904 | 48 | 256 | 2.6 | 4.3 | 0.00 | 0.53 | 0.53 | 99 | 1007.4 |
| 20260506083401 | 48 | 16 | 0.0 | 0.0 | 0.00 | 0.53 | 0.53 | 99 | 1007.1 |
| 20260506082858 | 48 | 33 | 0.0 | 0.0 | 0.07 | 0.53 | 0.53 | 99 | 1006.8 |
| 20260506082355 | 48 | 127 | 0.0 | 0.0 | 0.07 | 0.53 | 0.53 | 99 | 1006.7 |
| 20260506081851 | 48 | 72 | 0.0 | 0.9 | 0.12 | 0.52 | 0.52 | 99 | 1006.7 |
| 20260506081349 | 48 | 43 | 0.9 | 1.7 | 0.17 | 0.52 | 0.52 | 99 | 1006.9 |
| 20260506080847 | 49 | 296 | 0.0 | 0.9 | 0.12 | 0.50 | 0.50 | 99 | 1007.0 |
| 20260506080343 | 49 | 63 | 0.0 | 0.0 | 0.12 | 0.49 | 0.49 | 99 | 1006.9 |
| 20260506073327 | 49 | 266 | 0.0 | 0.0 | 0.12 | 0.38 | 0.38 | 99 | 1006.8 |
| 20260506072824 | 49 | 186 | 0.0 | 0.0 | 0.12 | 0.37 | 0.37 | 99 | 1006.6 |
| 20260506072322 | 49 | 112 | 0.0 | 0.0 | 0.12 | 0.36 | 0.36 | 99 | 1006.3 |
| 20260506071819 | 49 | 37 | 0.0 | 0.0 | 0.05 | 0.35 | 0.35 | 99 | 1006.3 |
| 20260506071317 | 49 | 70 | 0.0 | 0.0 | 0.07 | 0.34 | 0.34 | 99 | 1006.2 |
| 20260506070814 | 49 | 46 | 0.0 | 0.9 | 0.14 | 0.34 | 0.34 | 99 | 1006.1 |
| 20260506070311 | 49 | 72 | 0.0 | 0.0 | 0.12 | 0.33 | 0.33 | 99 | 1006.2 |
| 20260506062248 | 50 | 42 | 0.9 | 0.9 | 0.07 | 0.27 | 0.27 | 99 | 1006.6 |
| 20260506061744 | 50 | 45 | 0.0 | 0.9 | 0.12 | 0.27 | 0.27 | 99 | 1006.7 |
| 20260506061241 | 50 | 308 | 0.0 | 0.0 | 0.12 | 0.26 | 0.26 | 99 | 1007.0 |
| 20260506060739 | 50 | 38 | 0.0 | 0.0 | 0.07 | 0.25 | 0.25 | 99 | 1007.1 |
| 20260506060237 | 50 | 75 | 0.0 | 0.0 | 0.00 | 0.24 | 0.24 | 99 | 1007.0 |
| 20260506051209 | 55 | 22 | 1.7 | 1.7 | 0.12 | 0.18 | 0.18 | 99 | 1007.2 |
| 20260506050707 | 57 | 244 | 2.6 | 2.6 | 0.24 | 0.17 | 0.17 | 99 | 1007.7 |
| 20260506050203 | 57 | 188 | 0.0 | 0.0 | 0.17 | 0.15 | 0.15 | 99 | 1007.6 |
| 20260506044655 | 57 | 196 | 0.0 | 0.0 | 0.12 | 0.11 | 0.11 | 99 | 1007.6 |
| 20260506044151 | 57 | 179 | 0.0 | 0.9 | 0.19 | 0.10 | 0.10 | 99 | 1007.7 |
| 20260506043649 | 57 | 182 | 0.9 | 0.9 | 0.19 | 0.09 | 0.09 | 99 | 1008.0 |
| 20260506043146 | 57 | 258 | 1.7 | 1.7 | 0.12 | 0.07 | 0.07 | 99 | 1008.0 |
| 20260506042646 | 57 | 221 | 0.0 | 0.0 | 0.12 | 0.06 | 0.06 | 99 | 1008.1 |
| 20260506042143 | 57 | 266 | 0.0 | 0.0 | 0.12 | 0.05 | 0.05 | 99 | 1008.0 |
| 20260506041641 | 58 | 225 | 0.0 | 0.0 | 0.17 | 0.04 | 0.04 | 99 | 1007.7 |
| 20260506041138 | 58 | 252 | 0.0 | 0.0 | 0.19 | 0.03 | 0.03 | 99 | 1008.3 |
| 20260506040635 | 58 | 253 | 0.0 | 0.0 | 0.07 | 0.01 | 0.01 | 99 | 1008.2 |
| 20260506040132 | 57 | 191 | 0.0 | 0.0 | 0.05 | 0.00 | 0.00 | 99 | 1008.1 |
| 20260506035629 | 58 | 184 | 0.0 | 0.0 | 0.05 | 0.31 | 0.31 | 99 | 1007.9 |
| 20260506035125 | 57 | 184 | 0.0 | 0.0 | 0.07 | 0.30 | 0.30 | 99 | 1008.2 |
| 20260506034623 | 57 | 184 | 0.0 | 0.0 | 0.12 | 0.30 | 0.30 | 99 | 1008.3 |
| 20260506034120 | 57 | 183 | 0.0 | 0.0 | 0.12 | 0.29 | 0.29 | 99 | 1008.2 |
| 20260506033617 | 58 | 183 | 0.0 | 0.0 | 0.14 | 0.28 | 0.28 | 99 | 1008.0 |
| 20260506033114 | 58 | 182 | 0.0 | 0.0 | 0.07 | 0.27 | 0.27 | 99 | 1008.3 |
| 20260506032611 | 58 | 179 | 0.0 | 0.0 | 0.05 | 0.26 | 0.26 | 99 | 1008.4 |
| 20260506032108 | 58 | 176 | 0.0 | 0.0 | 0.05 | 0.26 | 0.26 | 99 | 1008.2 |
| 20260506031605 | 58 | 177 | 0.0 | 0.0 | 0.00 | 0.25 | 0.25 | 99 | 1008.3 |
| 20260506031102 | 58 | 211 | 0.0 | 0.0 | 0.07 | 0.25 | 0.25 | 99 | 1008.3 |
| 20260506030601 | 58 | 216 | 0.0 | 0.0 | 0.07 | 0.25 | 0.25 | 99 | 1008.4 |
| 20260506030057 | 58 | 255 | 0.9 | 0.9 | 0.05 | 0.24 | 0.24 | 99 | 1008.4 |
| 20260506025554 | 58 | 254 | 1.7 | 1.7 | 0.05 | 0.24 | 0.24 | 99 | 1008.4 |
| 20260506025050 | 58 | 259 | 0.0 | 0.0 | 0.00 | 0.23 | 0.23 | 99 | 1008.4 |
| 20260506024548 | 58 | 253 | 0.0 | 0.0 | 0.07 | 0.23 | 0.23 | 99 | 1008.6 |
| 20260506024044 | 58 | 198 | 0.0 | 0.0 | 0.07 | 0.23 | 0.23 | 99 | 1008.5 |
| 20260506023540 | 58 | 245 | 0.0 | 0.9 | 0.00 | 0.22 | 0.22 | 99 | 1008.7 |
| 20260506023038 | 58 | 259 | 2.6 | 2.6 | 0.05 | 0.22 | 0.22 | 99 | 1008.7 |
| 20260506022535 | 58 | 259 | 0.9 | 0.9 | 0.05 | 0.22 | 0.22 | 99 | 1008.7 |
| 20260506022032 | 58 | 256 | 0.9 | 0.9 | 0.00 | 0.21 | 0.21 | 99 | 1008.6 |
| 20260506021530 | 58 | 227 | 0.0 | 0.0 | 0.00 | 0.21 | 0.21 | 99 | 1008.6 |
| 20260506021027 | 58 | 201 | 0.0 | 0.0 | 0.07 | 0.21 | 0.21 | 99 | 1008.7 |
| 20260506020524 | 58 | 177 | 0.0 | 0.0 | 0.07 | 0.21 | 0.21 | 99 | 1008.6 |
| 20260506020022 | 58 | 174 | 0.0 | 0.0 | 0.00 | 0.20 | 0.20 | 99 | 1008.6 |
| 20260506015519 | 58 | 183 | 0.0 | 0.0 | 0.05 | 0.20 | 0.20 | 99 | 1008.5 |
| 20260506015016 | 58 | 179 | 0.0 | 0.0 | 0.05 | 0.20 | 0.20 | 99 | 1008.5 |
| 20260506014513 | 58 | 183 | 0.0 | 0.0 | 0.00 | 0.19 | 0.19 | 99 | 1008.4 |
| 20260506014009 | 58 | 175 | 0.0 | 0.0 | 0.00 | 0.19 | 0.19 | 99 | 1008.3 |
| 20260506013507 | 58 | 183 | 0.9 | 0.9 | 0.00 | 0.19 | 0.19 | 99 | 1008.1 |
| 20260506013003 | 58 | 177 | 0.0 | 0.0 | 0.00 | 0.19 | 0.19 | 99 | 1008.0 |
| 20260506012459 | 58 | 182 | 0.0 | 0.0 | 0.00 | 0.19 | 0.19 | 99 | 1008.1 |
| 20260506011957 | 58 | 181 | 0.0 | 0.0 | 0.00 | 0.19 | 0.19 | 99 | 1007.9 |
| 20260506011454 | 57 | 171 | 0.0 | 0.0 | 0.00 | 0.19 | 0.19 | 99 | 1008.0 |
| 20260506010950 | 58 | 192 | 1.7 | 1.7 | 0.00 | 0.19 | 0.19 | 99 | 1008.1 |
| 20260506010450 | 58 | 183 | 0.9 | 1.7 | 0.07 | 0.19 | 0.19 | 99 | 1008.2 |
| 20260506005945 | 58 | 196 | 2.6 | 2.6 | 0.07 | 0.19 | 0.19 | 99 | 1008.0 |
| 20260506005443 | 58 | 182 | 2.6 | 2.6 | 0.00 | 0.18 | 0.18 | 99 | 1008.2 |
| 20260506004938 | 58 | 183 | 0.9 | 1.7 | 0.00 | 0.18 | 0.18 | 99 | 1008.3 |
| 20260506004437 | 58 | 181 | 0.9 | 0.9 | 0.00 | 0.18 | 0.18 | 99 | 1008.2 |
| 20260506003932 | 58 | 182 | 0.0 | 0.0 | 0.00 | 0.18 | 0.18 | 99 | 1008.3 |
| 20260506003429 | 58 | 185 | 0.0 | 0.0 | 0.00 | 0.18 | 0.18 | 99 | 1008.5 |
| 20260506002926 | 58 | 179 | 0.0 | 0.0 | 0.05 | 0.18 | 0.18 | 99 | 1008.4 |
| 20260506002421 | 58 | 181 | 0.0 | 0.0 | 0.05 | 0.18 | 0.18 | 99 | 1008.3 |
| 20260506001917 | 58 | 182 | 0.0 | 0.0 | 0.00 | 0.17 | 0.17 | 99 | 1008.2 |
| 20260506001414 | 58 | 193 | 0.0 | 0.0 | 0.07 | 0.17 | 0.17 | 99 | 1008.4 |
| 20260506000911 | 58 | 288 | 1.7 | 1.7 | 0.07 | 0.17 | 0.17 | 99 | 1008.1 |
| 20260506000409 | 58 | 224 | 0.0 | 0.0 | 0.00 | 0.16 | 0.16 | 99 | 1008.3 |
| 20260505235906 | 58 | 260 | 0.9 | 1.7 | 0.05 | 0.16 | 0.16 | 99 | 1008.2 |
| 20260505235404 | 58 | 267 | 2.6 | 2.6 | 0.12 | 0.16 | 0.16 | 99 | 1008.2 |
| 20260505234900 | 58 | 280 | 7.8 | 11.3 | 0.19 | 0.15 | 0.15 | 99 | 1008.4 |
| 20260505234358 | 58 | 263 | 5.2 | 6.1 | 0.24 | 0.14 | 0.14 | 99 | 1008.5 |
| 20260505233854 | 58 | 281 | 5.2 | 7.8 | 0.24 | 0.12 | 0.12 | 98 | 1008.2 |
| 20260505233352 | 58 | 307 | 5.2 | 6.1 | 0.61 | 0.10 | 0.10 | 97 | 1008.5 |
| 20260505232849 | 59 | 303 | 6.1 | 7.0 | 0.31 | 0.05 | 0.05 | 94 | 1008.7 |
| 20260505232348 | 65 | 229 | 13.0 | 20.0 | 0.00 | 0.00 | 0.00 | 86 | 1008.5 |
| 20260505231844 | 68 | 184 | 6.1 | 7.0 | 0.00 | 0.00 | 0.00 | 65 | 1007.5 |
| 20260505231341 | 68 | 204 | 6.1 | 7.8 | 0.00 | 0.00 | 0.00 | 66 | 1007.2 |
| 20260505230839 | 68 | 198 | 6.1 | 9.6 | 0.00 | 0.00 | 0.00 | 67 | 1007.4 |
| 20260505230336 | 68 | 191 | 2.6 | 4.3 | 0.00 | 0.00 | 0.00 | 68 | 1007.2 |
| 20260505225833 | 68 | 180 | 3.5 | 5.2 | 0.00 | 0.00 | 0.00 | 68 | 1006.9 |
| 20260505225331 | 68 | 196 | 6.1 | 8.7 | 0.00 | 0.00 | 0.00 | 67 | 1007.1 |
| 20260505224831 | 68 | 180 | 1.7 | 2.6 | 0.00 | 0.00 | 0.00 | 69 | 1007.1 |
| 20260505224329 | 69 | 172 | 5.2 | 6.1 | 0.00 | 0.00 | 0.00 | 66 | 1007.2 |
| 20260505223826 | 68 | 221 | 6.1 | 8.7 | 0.00 | 0.00 | 0.00 | 66 | 1007.3 |
| 20260505223323 | 68 | 191 | 5.2 | 8.7 | 0.00 | 0.00 | 0.00 | 67 | 1007.2 |
| 20260505222819 | 68 | 172 | 2.6 | 4.3 | 0.00 | 0.00 | 0.00 | 69 | 1007.6 |
| 20260505222315 | 69 | 196 | 6.1 | 8.7 | 0.00 | 0.00 | 0.00 | 67 | 1007.3 |
| 20260505221812 | 68 | 184 | 4.3 | 6.1 | 0.00 | 0.00 | 0.00 | 67 | 1007.5 |
| 20260505221309 | 68 | 184 | 2.6 | 5.2 | 0.00 | 0.00 | 0.00 | 68 | 1007.3 |
| 20260505220806 | 68 | 200 | 5.2 | 7.0 | 0.00 | 0.00 | 0.00 | 67 | 1007.3 |
| 20260505220303 | 68 | 167 | 3.5 | 4.3 | 0.00 | 0.00 | 0.00 | 70 | 1007.5 |
| 20260505215801 | 68 | 170 | 0.9 | 0.9 | 0.00 | 0.00 | 0.00 | 69 | 1007.5 |
| 20260505215259 | 68 | 193 | 3.5 | 4.3 | 0.00 | 0.00 | 0.00 | 68 | 1007.2 |
| 20260505214756 | 68 | 194 | 1.7 | 1.7 | 0.00 | 0.00 | 0.00 | 68 | 1007.5 |
| 20260505214253 | 68 | 169 | 3.5 | 5.2 | 0.00 | 0.00 | 0.00 | 67 | 1007.5 |
| 20260505213750 | 68 | 168 | 2.6 | 4.3 | 0.00 | 0.00 | 0.00 | 68 | 1007.4 |
| 20260505213248 | 68 | 196 | 6.1 | 7.0 | 0.00 | 0.00 | 0.00 | 67 | 1007.5 |
| 20260505212743 | 68 | 200 | 7.8 | 9.6 | 0.00 | 0.00 | 0.00 | 67 | 1007.3 |
| 20260505212241 | 68 | 180 | 3.5 | 4.3 | 0.00 | 0.00 | 0.00 | 69 | 1007.5 |
| 20260505211738 | 68 | 251 | 1.7 | 2.6 | 0.00 | 0.00 | 0.00 | 69 | 1007.7 |
| 20260505211235 | 68 | 278 | 2.6 | 5.2 | 0.00 | 0.00 | 0.00 | 68 | 1007.9 |
| 20260505210731 | 68 | 182 | 6.1 | 7.0 | 0.00 | 0.00 | 0.00 | 68 | 1007.6 |
| 20260505210228 | 68 | 217 | 2.6 | 2.6 | 0.00 | 0.00 | 0.00 | 70 | 1007.6 |
| 20260505205726 | 68 | 199 | 5.2 | 6.1 | 0.00 | 0.00 | 0.00 | 68 | 1007.7 |
| 20260505205224 | 68 | 281 | 4.3 | 6.1 | 0.00 | 0.00 | 0.00 | 69 | 1007.6 |
| 20260505204720 | 68 | 176 | 2.6 | 6.1 | 0.00 | 0.00 | 0.00 | 69 | 1007.7 |
| 20260505204218 | 68 | 178 | 4.3 | 5.2 | 0.00 | 0.00 | 0.00 | 68 | 1007.9 |
| 20260505203715 | 68 | 180 | 3.5 | 5.2 | 0.00 | 0.00 | 0.00 | 68 | 1007.9 |
| 20260505203212 | 68 | 182 | 6.1 | 7.0 | 0.00 | 0.00 | 0.00 | 69 | 1008.0 |
| 20260505202708 | 68 | 184 | 2.6 | 2.6 | 0.00 | 0.00 | 0.00 | 70 | 1008.0 |
| 20260505202204 | 68 | 188 | 2.6 | 4.3 | 0.00 | 0.00 | 0.00 | 69 | 1008.0 |
| 20260505201700 | 68 | 206 | 1.7 | 2.6 | 0.00 | 0.00 | 0.00 | 69 | 1007.9 |
| 20260505201159 | 68 | 239 | 3.5 | 4.3 | 0.00 | 0.00 | 0.00 | 68 | 1008.2 |
| 20260505200656 | 68 | 210 | 1.7 | 2.6 | 0.00 | 0.00 | 0.00 | 70 | 1008.0 |
| 20260505200153 | 68 | 198 | 6.1 | 7.0 | 0.00 | 0.00 | 0.00 | 69 | 1008.3 |
| 20260505195649 | 68 | 227 | 8.7 | 9.6 | 0.00 | 0.00 | 0.00 | 68 | 1008.2 |
| 20260505195146 | 68 | 190 | 2.6 | 2.6 | 0.00 | 0.00 | 0.00 | 70 | 1008.3 |
| 20260505194643 | 68 | 193 | 5.2 | 8.7 | 0.00 | 0.00 | 0.00 | 69 | 1008.2 |
| 20260505194139 | 67 | 251 | 3.5 | 4.3 | 0.00 | 0.00 | 0.00 | 72 | 1008.4 |
| 20260505193636 | 67 | 193 | 1.7 | 2.6 | 0.00 | 0.00 | 0.00 | 72 | 1008.5 |
| 20260505193133 | 67 | 267 | 6.1 | 11.3 | 0.00 | 0.00 | 0.00 | 71 | 1008.4 |
| 20260505192632 | 67 | 263 | 8.7 | 11.3 | 0.00 | 0.00 | 0.00 | 71 | 1008.4 |
| 20260505192129 | 68 | 170 | 6.1 | 8.7 | 0.00 | 0.00 | 0.00 | 69 | 1008.3 |
| 20260505191627 | 68 | 181 | 12.2 | 13.9 | 0.00 | 0.00 | 0.00 | 68 | 1007.9 |
| 20260505191125 | 69 | 176 | 4.3 | 7.0 | 0.00 | 0.00 | 0.00 | 67 | 1008.0 |
| 20260505190621 | 69 | 185 | 5.2 | 12.2 | 0.00 | 0.00 | 0.00 | 66 | 1008.1 |
| 20260505190115 | 70 | 216 | 2.6 | 5.2 | 0.00 | 0.00 | 0.00 | 65 | 1008.1 |
| 20260505185613 | 71 | 197 | 2.6 | 2.6 | 0.00 | 0.00 | 0.00 | 66 | 1008.2 |
| 20260505185109 | 70 | 265 | 6.1 | 7.0 | 0.00 | 0.00 | 0.00 | 65 | 1008.3 |
| 20260505184606 | 70 | 252 | 4.3 | 6.1 | 0.00 | 0.00 | 0.00 | 67 | 1008.3 |
| 20260505184102 | 69 | 266 | 7.0 | 7.8 | 0.00 | 0.00 | 0.00 | 65 | 1008.4 |
| 20260505183559 | 69 | 252 | 3.5 | 5.2 | 0.00 | 0.00 | 0.00 | 65 | 1008.5 |
| 20260505183057 | 70 | 199 | 5.2 | 8.7 | 0.00 | 0.00 | 0.00 | 65 | 1008.7 |
| 20260505182553 | 69 | 256 | 3.5 | 5.2 | 0.00 | 0.00 | 0.00 | 66 | 1008.7 |
| 20260505182050 | 69 | 245 | 3.5 | 7.8 | 0.00 | 0.00 | 0.00 | 66 | 1008.6 |
| 20260505181546 | 69 | 178 | 4.3 | 5.2 | 0.00 | 0.00 | 0.00 | 67 | 1008.6 |
| 20260505181044 | 69 | 289 | 11.3 | 13.0 | 0.00 | 0.00 | 0.00 | 63 | 1008.8 |
| 20260505180539 | 70 | 280 | 7.8 | 9.6 | 0.00 | 0.00 | 0.00 | 63 | 1008.6 |
| 20260505180038 | 69 | 273 | 8.7 | 11.3 | 0.00 | 0.00 | 0.00 | 65 | 1008.8 |
| 20260505175537 | 69 | 208 | 4.3 | 6.1 | 0.00 | 0.00 | 0.00 | 67 | 1008.6 |
| 20260505175035 | 69 | 171 | 3.5 | 4.3 | 0.00 | 0.00 | 0.00 | 67 | 1008.8 |
| 20260505174532 | 69 | 242 | 4.3 | 7.0 | 0.00 | 0.00 | 0.00 | 66 | 1008.6 |
| 20260505174027 | 68 | 196 | 6.1 | 7.0 | 0.00 | 0.00 | 0.00 | 67 | 1008.7 |
| 20260505173525 | 68 | 280 | 7.0 | 9.6 | 0.00 | 0.00 | 0.00 | 67 | 1008.8 |
| 20260505173021 | 68 | 261 | 8.7 | 11.3 | 0.00 | 0.00 | 0.00 | 65 | 1008.6 |
| 20260505172519 | 69 | 261 | 7.8 | 12.2 | 0.00 | 0.00 | 0.00 | 65 | 1009.0 |
| 20260505172015 | 69 | 207 | 7.0 | 11.3 | 0.00 | 0.00 | 0.00 | 65 | 1008.8 |
| 20260505171510 | 69 | 202 | 5.2 | 6.1 | 0.00 | 0.00 | 0.00 | 65 | 1008.8 |
| 20260505171008 | 70 | 233 | 7.0 | 13.0 | 0.00 | 0.00 | 0.00 | 64 | 1008.8 |
| 20260505170504 | 69 | 266 | 7.8 | 13.0 | 0.00 | 0.00 | 0.00 | 66 | 1008.9 |
| 20260505170000 | 69 | 239 | 7.0 | 12.2 | 0.00 | 0.00 | 0.00 | 65 | 1008.9 |